Time,TemperatureF,DewpointF,PressureIn,WindDirection,WindDirectionDegrees,WindSpeedMPH,WindSpeedGustMPH,Humidity,HourlyPrecipIn,Conditions,Clouds,dailyrainin,SoftwareType,DateUTC
2013-08-12 00:01:00,63.2,58.9,30.03,NNE,19,0.0,0.0,86,0.00,,,0.00,WeatherCatV1.21B27,2013-08-12 04:01:00,
2013-08-12 00:02:00,63.1,58.8,30.03,NNE,18,0.0,0.0,86,0.00,,,0.00,WeatherCatV1.21B27,2013-08-12 04:02:00,
2013-08-12 00:03:00,63.1,58.8,30.03,NNE,18,0.0,0.0,86,0.00,,,0.00,WeatherCatV1.21B27,2013-08-12 04:03:00,
2013-08-12 00:04:00,63.1,58.8,30.03,NNE,18,0.0,0.0,86,0.00,,,0.00,WeatherCatV1.21B27,2013-08-12 04:04:00,
2013-08-12 00:06:00,63.1,58.8,30.03,NNE,19,0.0,0.0,86,0.00,,,0.00,WeatherCatV1.21B27,2013-08-12 04:06:00,
2013-08-12 00:07:00,63.1,58.8,30.03,NNE,19,0.0,0.0,86,0.00,,,0.00,WeatherCatV1.21B27,2013-08-12 04:07:00,
2013-08-12 00:12:00,63.0,58.7,30.03,NNE,19,0.0,0.0,86,0.00,,,0.00,WeatherCatV1.21B27,2013-08-12 04:12:00,
2013-08-12 00:17:00,62.9,58.6,30.03,NNE,19,0.0,0.0,86,0.00,,,0.00,WeatherCatV1.21B27,2013-08-12 04:17:00,
2013-08-12 00:22:00,62.9,58.6,30.03,NNE,19,0.0,0.0,86,0.00,,,0.00,WeatherCatV1.21B27,2013-08-12 04:22:00,
2013-08-12 00:27:00,62.9,58.6,30.03,NNE,19,0.0,0.0,86,0.00,,,0.00,WeatherCatV1.21B27,2013-08-12 04:27:00,
2013-08-12 00:32:00,62.8,58.9,30.03,NNE,18,0.0,0.0,87,0.00,,,0.00,WeatherCatV1.21B27,2013-08-12 04:32:00,
2013-08-12 00:37:00,62.8,58.9,30.03,NNE,19,0.0,0.0,87,0.00,,,0.00,WeatherCatV1.21B27,2013-08-12 04:37:00,
2013-08-12 00:42:00,62.8,58.9,30.03,NNE,19,0.0,0.0,87,0.00,,,0.00,WeatherCatV1.21B27,2013-08-12 04:42:00,
2013-08-12 00:47:00,62.8,58.9,30.03,NNE,19,0.0,0.0,87,0.00,,,0.00,WeatherCatV1.21B27,2013-08-12 04:47:00,
2013-08-12 00:52:00,62.9,59.0,30.03,NNE,18,0.0,0.0,87,0.00,,,0.00,WeatherCatV1.21B27,2013-08-12 04:52:00,
2013-08-12 00:57:00,63.0,59.1,30.03,NNE,19,0.0,0.0,87,0.00,,,0.00,WeatherCatV1.21B27,2013-08-12 04:57:00,
2013-08-12 01:02:00,63.0,59.1,30.03,NNE,19,0.0,0.0,87,0.00,,,0.00,WeatherCatV1.21B27,2013-08-12 05:02:00,
2013-08-12 01:07:00,63.1,59.2,30.03,NNE,18,0.0,0.0,87,0.00,,,0.00,WeatherCatV1.21B27,2013-08-12 05:07:00,
2013-08-12 01:12:00,63.2,59.3,30.03,NNE,18,0.0,0.0,87,0.00,,,0.00,WeatherCatV1.21B27,2013-08-12 05:12:00,
2013-08-12 01:17:00,63.3,59.4,30.03,NNE,19,0.0,0.0,87,0.00,,,0.00,WeatherCatV1.21B27,2013-08-12 05:17:00,
2013-08-12 01:22:00,63.3,59.4,30.02,NNE,19,0.0,0.0,87,0.00,,,0.00,WeatherCatV1.21B27,2013-08-12 05:22:00,
2013-08-12 01:27:00,63.2,59.3,30.02,NNE,19,0.0,0.0,87,0.00,,,0.00,WeatherCatV1.21B27,2013-08-12 05:27:00,
2013-08-12 01:32:00,63.4,59.5,30.02,NNE,18,0.0,0.0,87,0.00,,,0.00,WeatherCatV1.21B27,2013-08-12 05:32:00,
2013-08-12 01:37:00,63.5,59.2,30.02,NNE,19,0.0,0.0,86,0.00,,,0.00,WeatherCatV1.21B27,2013-08-12 05:37:00,
2013-08-12 01:42:00,63.9,59.6,30.02,NNE,19,0.0,0.0,86,0.00,,,0.00,WeatherCatV1.21B27,2013-08-12 05:42:00,
2013-08-12 01:47:00,64.1,59.5,30.02,NNE,19,0.0,0.0,85,0.00,,,0.00,WeatherCatV1.21B27,2013-08-12 05:47:00,
2013-08-12 01:53:00,64.3,59.7,30.02,NNE,19,0.0,0.0,85,0.00,,,0.00,WeatherCatV1.21B27,2013-08-12 05:53:00,
2013-08-12 01:58:00,64.4,59.5,30.02,NNE,19,0.0,0.0,84,0.00,,,0.00,WeatherCatV1.21B27,2013-08-12 05:58:00,
2013-08-12 02:03:00,64.4,59.5,30.02,NNE,19,0.0,0.0,84,0.00,,,0.00,WeatherCatV1.21B27,2013-08-12 06:03:00,
2013-08-12 02:08:00,64.6,59.7,30.02,NNE,19,0.0,0.0,84,0.00,,,0.00,WeatherCatV1.21B27,2013-08-12 06:08:00,
2013-08-12 02:13:00,64.6,59.3,30.02,NNE,18,0.0,0.0,83,0.00,,,0.00,WeatherCatV1.21B27,2013-08-12 06:13:00,
2013-08-12 02:18:00,64.6,59.3,30.02,NNE,18,0.0,0.0,83,0.00,,,0.00,WeatherCatV1.21B27,2013-08-12 06:18:00,
2013-08-12 02:23:00,64.8,59.5,30.02,NNE,19,0.0,0.0,83,0.00,,,0.00,WeatherCatV1.21B27,2013-08-12 06:23:00,
2013-08-12 02:28:00,64.7,58.7,30.02,NNE,18,0.0,0.0,81,0.00,,,0.00,WeatherCatV1.21B27,2013-08-12 06:28:00,
2013-08-12 02:33:00,64.6,57.9,30.02,NNE,18,0.0,0.0,79,0.00,,,0.00,WeatherCatV1.21B27,2013-08-12 06:33:00,
2013-08-12 02:38:00,64.7,57.7,30.01,NNE,19,0.0,0.0,78,0.00,,,0.00,WeatherCatV1.21B27,2013-08-12 06:38:00,
2013-08-12 02:43:00,64.9,57.9,30.01,NNE,19,0.0,0.0,78,0.00,,,0.00,WeatherCatV1.21B27,2013-08-12 06:43:00,
2013-08-12 02:48:00,65.1,58.4,30.01,NNE,18,0.0,0.0,79,0.00,,,0.00,WeatherCatV1.21B27,2013-08-12 06:48:00,
2013-08-12 02:53:00,65.1,58.4,30.01,NNE,19,0.0,0.0,79,0.00,,,0.00,WeatherCatV1.21B27,2013-08-12 06:53:00,
2013-08-12 02:58:00,65.3,59.3,30.01,NNE,19,0.0,0.0,81,0.00,,,0.00,WeatherCatV1.21B27,2013-08-12 06:58:00,
2013-08-12 03:03:00,65.2,58.9,30.01,NNE,19,0.0,0.0,80,0.00,,,0.00,WeatherCatV1.21B27,2013-08-12 07:03:00,
2013-08-12 03:08:00,65.1,58.8,30.01,NNE,19,0.0,0.0,80,0.00,,,0.00,WeatherCatV1.21B27,2013-08-12 07:08:00,
2013-08-12 03:13:00,65.1,58.8,30.01,NNE,19,0.0,0.0,80,0.00,,,0.00,WeatherCatV1.21B27,2013-08-12 07:13:00,
2013-08-12 03:18:00,65.0,58.3,30.01,NNE,19,0.0,0.0,79,0.00,,,0.00,WeatherCatV1.21B27,2013-08-12 07:18:00,
2013-08-12 03:23:00,65.1,58.4,30.01,NNE,18,0.0,0.0,79,0.00,,,0.00,WeatherCatV1.21B27,2013-08-12 07:23:00,
2013-08-12 03:28:00,65.3,58.6,30.01,NNE,18,0.0,0.0,79,0.00,,,0.00,WeatherCatV1.21B27,2013-08-12 07:28:00,
2013-08-12 03:33:00,65.3,58.6,30.01,NNE,19,0.0,0.0,79,0.00,,,0.00,WeatherCatV1.21B27,2013-08-12 07:33:00,
2013-08-12 03:38:00,65.4,58.7,30.01,NNE,19,0.0,0.0,79,0.00,,,0.00,WeatherCatV1.21B27,2013-08-12 07:38:00,
2013-08-12 03:43:00,65.4,58.7,30.01,NNE,18,0.0,0.0,79,0.00,,,0.00,WeatherCatV1.21B27,2013-08-12 07:43:00,
2013-08-12 03:48:00,65.4,58.7,30.01,NNE,18,0.0,0.0,79,0.00,,,0.00,WeatherCatV1.21B27,2013-08-12 07:48:00,
2013-08-12 03:53:00,65.4,58.7,30.01,NNE,19,0.0,0.0,79,0.00,,,0.00,WeatherCatV1.21B27,2013-08-12 07:53:00,
2013-08-12 03:58:00,65.5,58.8,30.01,NNE,18,0.0,0.0,79,0.00,,,0.00,WeatherCatV1.21B27,2013-08-12 07:58:00,
2013-08-12 04:03:00,65.5,59.2,30.01,NNE,18,0.0,0.0,80,0.00,,,0.00,WeatherCatV1.21B27,2013-08-12 08:03:00,
2013-08-12 04:08:00,65.5,59.2,30.01,NNE,19,0.0,0.0,80,0.00,,,0.00,WeatherCatV1.21B27,2013-08-12 08:08:00,
2013-08-12 04:13:00,65.4,59.1,30.01,NNE,19,0.0,0.0,80,0.00,,,0.00,WeatherCatV1.21B27,2013-08-12 08:13:00,
2013-08-12 04:18:00,65.4,58.7,30.01,NNE,19,0.0,0.0,79,0.00,,,0.00,WeatherCatV1.21B27,2013-08-12 08:18:00,
2013-08-12 04:23:00,65.4,58.7,30.01,NNE,19,0.0,0.0,79,0.00,,,0.00,WeatherCatV1.21B27,2013-08-12 08:23:00,
2013-08-12 04:28:00,65.4,59.1,30.00,NNE,18,0.0,0.0,80,0.00,,,0.00,WeatherCatV1.21B27,2013-08-12 08:28:00,
2013-08-12 04:33:00,65.5,59.2,30.00,NNE,19,0.0,0.0,80,0.00,,,0.00,WeatherCatV1.21B27,2013-08-12 08:33:00,
2013-08-12 04:38:00,65.3,59.0,30.00,NNE,18,0.0,0.0,80,0.00,,,0.00,WeatherCatV1.21B27,2013-08-12 08:38:00,
2013-08-12 04:43:00,65.3,59.0,30.00,NNE,19,0.0,0.0,80,0.00,,,0.00,WeatherCatV1.21B27,2013-08-12 08:43:00,
2013-08-12 04:48:00,65.1,58.8,30.00,NNE,19,0.0,0.0,80,0.00,,,0.00,WeatherCatV1.21B27,2013-08-12 08:48:00,
2013-08-12 04:53:00,65.0,59.4,30.00,NNE,19,0.0,0.0,82,0.00,,,0.00,WeatherCatV1.21B27,2013-08-12 08:53:00,
2013-08-12 04:58:00,64.6,59.0,30.00,NNE,18,0.0,0.0,82,0.00,,,0.00,WeatherCatV1.21B27,2013-08-12 08:58:00,
2013-08-12 05:03:00,64.4,59.1,30.00,NNE,18,0.0,0.0,83,0.00,,,0.00,WeatherCatV1.21B27,2013-08-12 09:03:00,
2013-08-12 05:08:00,64.3,59.0,30.00,NNE,19,0.0,0.0,83,0.00,,,0.00,WeatherCatV1.21B27,2013-08-12 09:08:00,
2013-08-12 05:13:00,64.1,58.8,30.00,NNE,18,0.0,0.0,83,0.00,,,0.00,WeatherCatV1.21B27,2013-08-12 09:13:00,
2013-08-12 05:18:00,63.9,59.0,30.00,NNE,18,0.0,0.0,84,0.00,,,0.00,WeatherCatV1.21B27,2013-08-12 09:18:00,
2013-08-12 05:23:00,63.9,59.0,30.00,NNE,19,0.0,0.0,84,0.00,,,0.00,WeatherCatV1.21B27,2013-08-12 09:23:00,
2013-08-12 05:28:00,64.0,59.1,30.00,NNE,19,0.0,0.0,84,0.00,,,0.00,WeatherCatV1.21B27,2013-08-12 09:28:00,
2013-08-12 05:33:00,63.9,59.0,30.00,NNE,18,0.0,0.0,84,0.00,,,0.00,WeatherCatV1.21B27,2013-08-12 09:33:00,
2013-08-12 05:38:00,64.1,59.2,30.00,NNE,18,0.0,0.0,84,0.00,,,0.00,WeatherCatV1.21B27,2013-08-12 09:38:00,
2013-08-12 05:43:00,64.1,58.8,30.00,NNE,18,0.0,0.0,83,0.00,,,0.00,WeatherCatV1.21B27,2013-08-12 09:43:00,
2013-08-12 05:48:00,64.3,59.0,30.00,NNE,19,0.0,0.0,83,0.00,,,0.00,WeatherCatV1.21B27,2013-08-12 09:48:00,
2013-08-12 05:53:00,64.4,59.1,30.01,NNE,19,0.0,0.0,83,0.00,,,0.00,WeatherCatV1.21B27,2013-08-12 09:53:00,
2013-08-12 05:58:00,64.5,58.9,30.00,NNE,19,0.0,0.0,82,0.00,,,0.00,WeatherCatV1.21B27,2013-08-12 09:58:00,
2013-08-12 06:03:00,64.6,59.0,30.00,NNE,19,0.0,0.0,82,0.00,,,0.00,WeatherCatV1.21B27,2013-08-12 10:03:00,
2013-08-12 06:08:00,64.6,59.0,30.00,NNE,19,0.0,0.0,82,0.00,,,0.00,WeatherCatV1.21B27,2013-08-12 10:08:00,
2013-08-12 06:13:00,64.7,59.1,30.00,NNE,18,0.0,0.0,82,0.00,,,0.00,WeatherCatV1.21B27,2013-08-12 10:13:00,
2013-08-12 06:18:00,64.7,59.1,30.00,NNE,18,0.0,0.0,82,0.00,,,0.00,WeatherCatV1.21B27,2013-08-12 10:18:00,
2013-08-12 06:23:00,64.8,59.2,30.00,NNE,19,0.0,0.0,82,0.00,,,0.00,WeatherCatV1.21B27,2013-08-12 10:23:00,
2013-08-12 06:28:00,64.8,59.2,30.00,NNE,19,0.0,0.0,82,0.00,,,0.00,WeatherCatV1.21B27,2013-08-12 10:28:00,
2013-08-12 06:33:00,64.8,59.2,30.00,NNE,19,0.0,0.0,82,0.00,,,0.00,WeatherCatV1.21B27,2013-08-12 10:33:00,
2013-08-12 06:38:00,64.8,59.2,30.00,NNE,19,0.0,0.0,82,0.00,,,0.00,WeatherCatV1.21B27,2013-08-12 10:38:00,
2013-08-12 06:43:00,64.8,59.5,30.00,NNE,19,0.0,0.0,83,0.00,,,0.00,WeatherCatV1.21B27,2013-08-12 10:43:00,
2013-08-12 06:48:00,64.7,59.4,30.00,NNE,19,0.0,0.0,83,0.00,,,0.00,WeatherCatV1.21B27,2013-08-12 10:48:00,
2013-08-12 06:53:00,64.7,59.4,30.00,NNE,18,0.0,0.0,83,0.00,,,0.00,WeatherCatV1.21B27,2013-08-12 10:53:00,
2013-08-12 06:58:00,64.8,59.5,30.00,NNE,19,0.0,0.0,83,0.00,,,0.00,WeatherCatV1.21B27,2013-08-12 10:58:00,
2013-08-12 07:03:00,64.9,59.6,30.00,NNE,19,0.0,0.0,83,0.00,,,0.00,WeatherCatV1.21B27,2013-08-12 11:03:00,
2013-08-12 07:08:00,65.0,59.7,30.00,NNE,18,0.0,0.0,83,0.00,,,0.00,WeatherCatV1.21B27,2013-08-12 11:08:00,
2013-08-12 07:13:00,65.1,59.8,30.00,NNE,19,0.0,0.0,83,0.00,,,0.00,WeatherCatV1.21B27,2013-08-12 11:13:00,
2013-08-12 07:18:00,65.3,60.0,30.00,NNE,19,0.0,0.0,83,0.00,,,0.00,WeatherCatV1.21B27,2013-08-12 11:18:00,
2013-08-12 07:23:00,65.4,60.1,30.00,NNE,18,0.0,0.0,83,0.00,,,0.00,WeatherCatV1.21B27,2013-08-12 11:23:00,
2013-08-12 07:28:00,65.4,60.1,30.00,NNE,18,0.0,0.0,83,0.00,,,0.00,WeatherCatV1.21B27,2013-08-12 11:28:00,
2013-08-12 07:33:00,65.5,60.2,30.01,NNE,19,0.0,0.0,83,0.00,,,0.00,WeatherCatV1.21B27,2013-08-12 11:33:00,
2013-08-12 07:38:00,65.8,60.5,30.01,NNE,18,0.0,0.0,83,0.00,,,0.00,WeatherCatV1.21B27,2013-08-12 11:38:00,
2013-08-12 07:43:00,65.9,60.6,30.00,NNE,19,0.0,0.0,83,0.00,,,0.00,WeatherCatV1.21B27,2013-08-12 11:43:00,
2013-08-12 07:48:00,66.1,60.8,30.01,NNE,19,0.0,0.0,83,0.00,,,0.00,WeatherCatV1.21B27,2013-08-12 11:48:00,
2013-08-12 07:53:00,66.3,61.0,30.00,NNE,21,0.0,0.0,83,0.00,,,0.00,WeatherCatV1.21B27,2013-08-12 11:53:00,
2013-08-12 07:58:00,66.6,61.3,30.00,NNE,21,0.0,0.0,83,0.00,,,0.00,WeatherCatV1.21B27,2013-08-12 11:58:00,
2013-08-12 08:03:00,66.7,61.4,30.00,NNE,21,0.0,0.0,83,0.00,,,0.00,WeatherCatV1.21B27,2013-08-12 12:03:00,
2013-08-12 08:08:00,66.8,61.1,30.00,NNE,21,0.0,0.0,82,0.00,,,0.00,WeatherCatV1.21B27,2013-08-12 12:08:00,
2013-08-12 08:13:00,66.9,61.2,30.00,NNE,21,0.0,0.0,82,0.00,,,0.00,WeatherCatV1.21B27,2013-08-12 12:13:00,
2013-08-12 08:18:00,67.1,61.4,30.00,NNE,21,0.0,0.0,82,0.00,,,0.00,WeatherCatV1.21B27,2013-08-12 12:18:00,
2013-08-12 08:23:00,67.3,61.6,30.00,NNE,21,0.0,0.0,82,0.00,,,0.00,WeatherCatV1.21B27,2013-08-12 12:23:00,
2013-08-12 08:28:00,67.4,61.7,30.00,NNE,21,0.0,0.0,82,0.00,,,0.00,WeatherCatV1.21B27,2013-08-12 12:28:00,
2013-08-12 08:33:00,67.6,61.5,30.00,NNE,21,0.0,0.0,81,0.00,,,0.00,WeatherCatV1.21B27,2013-08-12 12:33:00,
2013-08-12 08:38:00,67.7,61.7,30.00,NNE,21,0.0,0.0,81,0.00,,,0.00,WeatherCatV1.21B27,2013-08-12 12:38:00,
2013-08-12 08:43:00,67.9,61.8,30.00,NNE,21,0.0,0.0,81,0.00,,,0.00,WeatherCatV1.21B27,2013-08-12 12:43:00,
2013-08-12 08:48:00,68.1,62.0,30.00,North,350,0.0,0.0,81,0.00,,,0.00,WeatherCatV1.21B27,2013-08-12 12:48:00,
2013-08-12 08:53:00,68.4,62.0,30.01,North,350,0.0,0.0,80,0.00,,,0.00,WeatherCatV1.21B27,2013-08-12 12:53:00,
2013-08-12 08:58:00,68.4,62.0,30.01,North,349,0.0,0.0,80,0.00,,,0.00,WeatherCatV1.21B27,2013-08-12 12:58:00,
2013-08-12 09:03:00,68.5,62.4,30.00,North,349,0.0,0.0,81,0.00,,,0.00,WeatherCatV1.21B27,2013-08-12 13:03:00,
2013-08-12 09:08:00,68.7,62.6,30.00,North,350,0.0,0.0,81,0.00,,,0.00,WeatherCatV1.21B27,2013-08-12 13:08:00,
2013-08-12 09:13:00,68.7,62.6,30.00,North,350,0.0,0.0,81,0.00,,,0.00,WeatherCatV1.21B27,2013-08-12 13:13:00,
2013-08-12 09:18:00,68.8,62.7,30.00,North,349,0.0,0.0,81,0.00,,,0.00,WeatherCatV1.21B27,2013-08-12 13:18:00,
2013-08-12 09:23:00,68.7,62.6,30.00,North,349,0.0,0.0,81,0.00,,,0.00,WeatherCatV1.21B27,2013-08-12 13:23:00,
2013-08-12 09:28:00,68.6,62.5,30.00,North,350,0.0,0.0,81,0.00,,,0.00,WeatherCatV1.21B27,2013-08-12 13:28:00,
2013-08-12 09:33:00,68.6,62.9,29.99,North,350,0.0,0.0,82,0.00,,,0.00,WeatherCatV1.21B27,2013-08-12 13:33:00,
2013-08-12 09:38:00,68.6,62.9,29.99,North,349,0.0,0.0,82,0.00,,,0.00,WeatherCatV1.21B27,2013-08-12 13:38:00,
2013-08-12 09:43:00,68.9,63.2,29.99,North,349,0.0,0.0,82,0.00,,,0.00,WeatherCatV1.21B27,2013-08-12 13:43:00,
2013-08-12 09:48:00,69.4,64.0,29.99,North,350,0.0,0.0,83,0.00,,,0.00,WeatherCatV1.21B27,2013-08-12 13:48:00,
2013-08-12 09:53:00,69.8,64.1,29.99,North,350,0.0,0.0,82,0.00,,,0.00,WeatherCatV1.21B27,2013-08-12 13:53:00,
2013-08-12 09:58:00,70.0,63.9,29.99,North,350,0.0,0.0,81,0.00,,,0.00,WeatherCatV1.21B27,2013-08-12 13:58:00,
2013-08-12 10:03:00,70.3,64.2,29.99,North,350,0.0,0.0,81,0.00,,,0.00,WeatherCatV1.21B27,2013-08-12 14:03:00,
2013-08-12 10:08:00,70.5,64.4,29.99,North,350,0.0,0.0,81,0.00,,,0.00,WeatherCatV1.21B27,2013-08-12 14:08:00,
2013-08-12 10:13:00,70.8,64.7,29.98,North,349,0.0,0.0,81,0.00,,,0.00,WeatherCatV1.21B27,2013-08-12 14:13:00,
2013-08-12 10:18:00,71.0,64.2,29.99,North,349,0.0,0.0,79,0.00,,,0.00,WeatherCatV1.21B27,2013-08-12 14:18:00,
2013-08-12 10:23:00,71.1,64.6,29.99,North,350,0.0,0.0,80,0.00,,,0.00,WeatherCatV1.21B27,2013-08-12 14:23:00,
2013-08-12 10:28:00,71.0,64.2,29.99,North,350,0.0,0.0,79,0.00,,,0.00,WeatherCatV1.21B27,2013-08-12 14:28:00,
2013-08-12 10:33:00,70.9,64.4,30.00,North,349,0.0,0.0,80,0.00,,,0.00,WeatherCatV1.21B27,2013-08-12 14:33:00,
2013-08-12 10:38:00,70.9,64.8,30.00,North,350,0.0,0.0,81,0.00,,,0.00,WeatherCatV1.21B27,2013-08-12 14:38:00,
2013-08-12 10:43:00,71.1,65.3,30.00,North,350,0.0,0.0,82,0.00,,,0.00,WeatherCatV1.21B27,2013-08-12 14:43:00,
2013-08-12 10:48:00,71.1,65.3,30.00,North,349,0.0,0.0,82,0.00,,,0.00,WeatherCatV1.21B27,2013-08-12 14:48:00,
2013-08-12 10:53:00,71.1,65.3,30.00,North,349,0.0,0.0,82,0.00,,,0.00,WeatherCatV1.21B27,2013-08-12 14:53:00,
2013-08-12 10:58:00,71.3,65.2,30.00,North,349,0.0,0.0,81,0.00,,,0.00,WeatherCatV1.21B27,2013-08-12 14:58:00,
2013-08-12 11:03:00,71.3,65.2,30.00,North,355,0.0,0.0,81,0.00,,,0.00,WeatherCatV1.21B27,2013-08-12 15:03:00,
2013-08-12 11:08:00,71.3,65.2,30.00,East,101,0.0,0.0,81,0.00,,,0.00,WeatherCatV1.21B27,2013-08-12 15:08:00,
2013-08-12 11:13:00,71.1,65.3,30.00,West,279,0.0,3.0,82,0.00,,,0.01,WeatherCatV1.21B27,2013-08-12 15:13:00,
2013-08-12 11:18:00,70.9,65.1,30.00,West,279,0.0,0.0,82,0.14,,,0.02,WeatherCatV1.21B27,2013-08-12 15:18:00,
2013-08-12 11:23:00,70.9,65.8,30.00,WNW,284,0.0,0.0,84,0.08,,,0.02,WeatherCatV1.21B27,2013-08-12 15:23:00,
2013-08-12 11:28:00,70.8,66.1,30.00,WNW,284,0.0,0.0,85,0.05,,,0.02,WeatherCatV1.21B27,2013-08-12 15:28:00,
2013-08-12 11:33:00,70.8,66.1,30.00,WNW,285,0.0,0.0,85,0.00,,,0.02,WeatherCatV1.21B27,2013-08-12 15:33:00,
2013-08-12 11:38:00,71.0,66.6,30.00,WNW,285,0.0,0.0,86,0.00,,,0.02,WeatherCatV1.21B27,2013-08-12 15:38:00,
2013-08-12 11:43:00,70.9,66.5,30.00,WNW,285,0.0,0.0,86,0.00,,,0.02,WeatherCatV1.21B27,2013-08-12 15:43:00,
2013-08-12 11:48:00,71.1,66.7,30.00,WNW,285,0.0,0.0,86,0.00,,,0.02,WeatherCatV1.21B27,2013-08-12 15:48:00,
2013-08-12 11:53:00,71.1,66.7,30.00,WNW,284,0.0,0.0,86,0.00,,,0.02,WeatherCatV1.21B27,2013-08-12 15:53:00,
2013-08-12 11:58:00,71.3,67.2,30.00,WNW,285,0.0,0.0,87,0.00,,,0.02,WeatherCatV1.21B27,2013-08-12 15:58:00,
2013-08-12 12:03:00,71.2,66.1,30.00,SW,236,1.0,3.0,84,0.00,,,0.02,WeatherCatV1.21B27,2013-08-12 16:03:00,
2013-08-12 12:08:00,70.8,65.0,30.00,SW,227,1.0,5.0,82,0.00,,,0.02,WeatherCatV1.21B27,2013-08-12 16:08:00,
2013-08-12 12:13:00,70.8,65.4,30.01,WSW,243,0.0,1.0,83,0.00,,,0.02,WeatherCatV1.21B27,2013-08-12 16:13:00,
2013-08-12 12:18:00,70.6,65.2,30.01,SW,232,0.0,2.0,83,0.00,,,0.02,WeatherCatV1.21B27,2013-08-12 16:18:00,
2013-08-12 12:23:00,70.2,64.4,30.01,WSW,239,0.0,0.0,82,0.00,,,0.02,WeatherCatV1.21B27,2013-08-12 16:23:00,
2013-08-12 12:28:00,70.2,64.8,30.01,West,266,2.0,3.0,83,0.00,,,0.02,WeatherCatV1.21B27,2013-08-12 16:28:00,
2013-08-12 12:33:00,70.3,64.9,30.00,West,264,0.0,0.0,83,0.00,,,0.02,WeatherCatV1.21B27,2013-08-12 16:33:00,
2013-08-12 12:38:00,70.4,65.0,30.00,SW,225,0.0,3.0,83,0.00,,,0.02,WeatherCatV1.21B27,2013-08-12 16:38:00,
2013-08-12 12:43:00,70.6,65.5,30.00,SW,225,0.0,1.0,84,0.00,,,0.02,WeatherCatV1.21B27,2013-08-12 16:43:00,
2013-08-12 12:48:00,70.5,65.4,29.99,SW,225,2.0,2.0,84,0.00,,,0.02,WeatherCatV1.21B27,2013-08-12 16:48:00,
2013-08-12 12:53:00,70.3,65.2,29.99,SW,219,0.0,2.0,84,0.00,,,0.02,WeatherCatV1.21B27,2013-08-12 16:53:00,
2013-08-12 12:58:00,70.2,65.1,29.99,SW,219,0.0,0.0,84,0.00,,,0.02,WeatherCatV1.21B27,2013-08-12 16:58:00,
2013-08-12 13:03:00,70.2,65.5,29.98,SW,219,0.0,0.0,85,0.00,,,0.02,WeatherCatV1.21B27,2013-08-12 17:03:00,
2013-08-12 13:08:00,70.2,65.5,29.99,SW,219,0.0,0.0,85,0.00,,,0.02,WeatherCatV1.21B27,2013-08-12 17:08:00,
2013-08-12 13:13:00,70.1,65.4,29.98,East,100,0.0,0.0,85,0.00,,,0.02,WeatherCatV1.21B27,2013-08-12 17:13:00,
2013-08-12 13:18:00,70.1,65.7,29.98,South,172,0.0,0.0,86,0.00,,,0.02,WeatherCatV1.21B27,2013-08-12 17:18:00,
2013-08-12 13:23:00,70.1,66.0,29.98,South,172,0.0,0.0,87,0.00,,,0.02,WeatherCatV1.21B27,2013-08-12 17:23:00,
2013-08-12 13:28:00,70.0,65.9,29.97,North,9,0.0,0.0,87,0.00,,,0.02,WeatherCatV1.21B27,2013-08-12 17:28:00,
2013-08-12 13:33:00,69.9,65.8,29.97,NE,51,0.0,0.0,87,0.00,,,0.02,WeatherCatV1.21B27,2013-08-12 17:33:00,
2013-08-12 13:38:00,70.0,65.9,29.97,NE,51,0.0,0.0,87,0.00,,,0.02,WeatherCatV1.21B27,2013-08-12 17:38:00,
2013-08-12 13:43:00,70.0,65.9,29.97,NE,51,0.0,0.0,87,0.00,,,0.02,WeatherCatV1.21B27,2013-08-12 17:43:00,
2013-08-12 13:48:00,70.0,65.9,29.98,NE,51,0.0,0.0,87,0.00,,,0.02,WeatherCatV1.21B27,2013-08-12 17:48:00,
2013-08-12 13:53:00,69.9,65.8,29.97,NE,39,0.0,0.0,87,0.00,,,0.02,WeatherCatV1.21B27,2013-08-12 17:53:00,
2013-08-12 13:58:00,69.7,65.7,29.96,SSE,153,0.0,0.0,87,0.00,,,0.02,WeatherCatV1.21B27,2013-08-12 17:58:00,
2013-08-12 14:03:00,69.4,65.0,29.95,East,90,0.0,0.0,86,0.00,,,0.02,WeatherCatV1.21B27,2013-08-12 18:03:00,
2013-08-12 14:08:00,69.2,64.8,29.96,North,355,0.0,0.0,86,0.00,,,0.02,WeatherCatV1.21B27,2013-08-12 18:08:00,
2013-08-12 14:13:00,69.2,64.8,29.97,WSW,242,0.0,1.0,86,0.00,,,0.03,WeatherCatV1.21B27,2013-08-12 18:13:00,
2013-08-12 14:18:00,69.1,64.4,29.97,SW,220,3.0,4.0,85,0.00,,,0.03,WeatherCatV1.21B27,2013-08-12 18:18:00,
2013-08-12 14:23:00,68.9,64.2,29.97,SSW,195,2.0,4.0,85,0.00,,,0.03,WeatherCatV1.21B27,2013-08-12 18:23:00,
2013-08-12 14:29:00,68.7,64.0,29.97,SSW,195,0.0,2.0,85,0.00,,,0.03,WeatherCatV1.21B27,2013-08-12 18:29:00,
2013-08-12 14:34:00,68.5,63.8,29.97,SSW,195,0.0,0.0,85,0.00,,,0.03,WeatherCatV1.21B27,2013-08-12 18:34:00,
2013-08-12 14:39:00,68.5,64.1,29.97,SSE,161,2.0,2.0,86,0.00,,,0.03,WeatherCatV1.21B27,2013-08-12 18:39:00,
2013-08-12 14:44:00,68.4,63.7,29.97,SSE,160,0.0,0.0,85,0.00,,,0.03,WeatherCatV1.21B27,2013-08-12 18:44:00,
2013-08-12 14:49:00,68.4,64.0,29.97,SSE,161,0.0,0.0,86,0.00,,,0.03,WeatherCatV1.21B27,2013-08-12 18:49:00,
2013-08-12 14:54:00,68.4,64.0,29.97,SSE,161,0.0,0.0,86,0.00,,,0.03,WeatherCatV1.21B27,2013-08-12 18:54:00,
2013-08-12 14:59:00,68.5,64.1,29.97,SSE,160,0.0,0.0,86,0.00,,,0.03,WeatherCatV1.21B27,2013-08-12 18:59:00,
2013-08-12 15:04:00,68.5,64.1,29.97,SSE,161,2.0,2.0,86,0.00,,,0.03,WeatherCatV1.21B27,2013-08-12 19:04:00,
2013-08-12 15:09:00,68.6,64.6,29.97,SSE,161,0.0,0.0,87,0.00,,,0.03,WeatherCatV1.21B27,2013-08-12 19:09:00,
2013-08-12 15:14:00,68.6,64.6,29.96,SSE,161,0.0,0.0,87,0.00,,,0.03,WeatherCatV1.21B27,2013-08-12 19:14:00,
2013-08-12 15:19:00,68.5,64.5,29.96,SSE,161,0.0,0.0,87,0.00,,,0.03,WeatherCatV1.21B27,2013-08-12 19:19:00,
2013-08-12 15:24:00,68.4,64.4,29.96,SSE,161,0.0,0.0,87,0.00,,,0.03,WeatherCatV1.21B27,2013-08-12 19:24:00,
2013-08-12 15:29:00,68.5,64.8,29.96,SSE,161,0.0,0.0,88,0.00,,,0.03,WeatherCatV1.21B27,2013-08-12 19:29:00,
2013-08-12 15:34:00,68.4,64.7,29.95,SSE,160,0.0,0.0,88,0.00,,,0.03,WeatherCatV1.21B27,2013-08-12 19:34:00,
2013-08-12 15:39:00,68.6,64.9,29.95,SSE,161,0.0,0.0,88,0.00,,,0.03,WeatherCatV1.21B27,2013-08-12 19:39:00,
2013-08-12 15:44:00,68.7,65.0,29.95,SSE,161,0.0,0.0,88,0.00,,,0.03,WeatherCatV1.21B27,2013-08-12 19:44:00,
2013-08-12 15:49:00,68.7,65.0,29.95,SSE,161,0.0,0.0,88,0.00,,,0.03,WeatherCatV1.21B27,2013-08-12 19:49:00,
2013-08-12 15:54:00,68.7,65.0,29.95,SSE,161,0.0,0.0,88,0.00,,,0.03,WeatherCatV1.21B27,2013-08-12 19:54:00,
2013-08-12 15:59:00,68.7,65.0,29.95,SSE,161,0.0,0.0,88,0.00,,,0.04,WeatherCatV1.21B27,2013-08-12 19:59:00,
2013-08-12 16:04:00,68.9,65.2,29.95,SSE,160,0.0,0.0,88,0.00,,,0.04,WeatherCatV1.21B27,2013-08-12 20:04:00,
2013-08-12 16:09:00,69.1,65.4,29.95,SSE,161,0.0,0.0,88,0.00,,,0.04,WeatherCatV1.21B27,2013-08-12 20:09:00,
2013-08-12 16:14:00,69.2,65.5,29.94,SSE,161,0.0,0.0,88,0.00,,,0.04,WeatherCatV1.21B27,2013-08-12 20:14:00,
2013-08-12 16:19:00,69.1,65.4,29.94,SSE,160,0.0,0.0,88,0.00,,,0.04,WeatherCatV1.21B27,2013-08-12 20:19:00,
2013-08-12 16:24:00,69.2,65.5,29.94,SSE,161,0.0,0.0,88,0.00,,,0.04,WeatherCatV1.21B27,2013-08-12 20:24:00,
2013-08-12 16:29:00,69.2,65.5,29.93,SSE,161,0.0,0.0,88,0.00,,,0.04,WeatherCatV1.21B27,2013-08-12 20:29:00,
2013-08-12 16:34:00,69.4,65.7,29.93,SSE,162,0.0,0.0,88,0.00,,,0.04,WeatherCatV1.21B27,2013-08-12 20:34:00,
2013-08-12 16:39:00,69.4,65.3,29.94,SSE,162,1.0,1.0,87,0.00,,,0.04,WeatherCatV1.21B27,2013-08-12 20:39:00,
2013-08-12 16:44:00,69.3,65.3,29.94,SSE,162,0.0,0.0,87,0.00,,,0.04,WeatherCatV1.21B27,2013-08-12 20:44:00,
2013-08-12 16:49:00,69.4,65.3,29.94,South,171,0.0,0.0,87,0.00,,,0.04,WeatherCatV1.21B27,2013-08-12 20:49:00,
2013-08-12 16:54:00,69.5,65.8,29.94,South,171,0.0,0.0,88,0.00,,,0.04,WeatherCatV1.21B27,2013-08-12 20:54:00,
2013-08-12 16:59:00,69.6,65.9,29.93,SSE,165,0.0,0.0,88,0.00,,,0.04,WeatherCatV1.21B27,2013-08-12 20:59:00,
2013-08-12 17:04:00,69.5,65.8,29.93,SW,219,0.0,0.0,88,0.00,,,0.04,WeatherCatV1.21B27,2013-08-12 21:04:00,
2013-08-12 17:09:00,69.3,65.6,29.93,SW,218,0.0,0.0,88,0.00,,,0.04,WeatherCatV1.21B27,2013-08-12 21:09:00,
2013-08-12 17:14:00,69.3,65.6,29.93,SW,219,0.0,0.0,88,0.00,,,0.04,WeatherCatV1.21B27,2013-08-12 21:14:00,
2013-08-12 17:19:00,69.3,65.6,29.92,SW,219,0.0,0.0,88,0.00,,,0.04,WeatherCatV1.21B27,2013-08-12 21:19:00,
2013-08-12 17:24:00,69.3,65.6,29.92,West,277,0.0,0.0,88,0.00,,,0.04,WeatherCatV1.21B27,2013-08-12 21:24:00,
2013-08-12 17:29:00,69.3,65.6,29.92,West,270,0.0,0.0,88,0.00,,,0.04,WeatherCatV1.21B27,2013-08-12 21:29:00,
2013-08-12 17:34:00,69.3,65.9,29.92,West,270,0.0,0.0,89,0.00,,,0.04,WeatherCatV1.21B27,2013-08-12 21:34:00,
2013-08-12 17:39:00,69.3,65.6,29.92,West,270,0.0,0.0,88,0.00,,,0.04,WeatherCatV1.21B27,2013-08-12 21:39:00,
2013-08-12 17:44:00,69.2,65.5,29.92,NE,52,0.0,0.0,88,0.00,,,0.04,WeatherCatV1.21B27,2013-08-12 21:44:00,
2013-08-12 17:49:00,69.2,65.5,29.92,NE,53,0.0,0.0,88,0.00,,,0.04,WeatherCatV1.21B27,2013-08-12 21:49:00,
2013-08-12 17:54:00,69.1,65.4,29.92,NE,53,0.0,0.0,88,0.00,,,0.04,WeatherCatV1.21B27,2013-08-12 21:54:00,
2013-08-12 17:59:00,69.1,65.4,29.92,West,264,0.0,0.0,88,0.00,,,0.04,WeatherCatV1.21B27,2013-08-12 21:59:00,
2013-08-12 18:04:00,69.3,65.6,29.91,West,264,0.0,0.0,88,0.00,,,0.04,WeatherCatV1.21B27,2013-08-12 22:04:00,
2013-08-12 18:09:00,69.4,65.7,29.91,WSW,242,0.0,0.0,88,0.00,,,0.04,WeatherCatV1.21B27,2013-08-12 22:09:00,
2013-08-12 18:14:00,69.5,65.8,29.91,WSW,242,0.0,0.0,88,0.00,,,0.04,WeatherCatV1.21B27,2013-08-12 22:14:00,
2013-08-12 18:19:00,69.8,66.4,29.91,WSW,242,0.0,0.0,89,0.00,,,0.04,WeatherCatV1.21B27,2013-08-12 22:19:00,
2013-08-12 18:24:00,70.2,66.8,29.91,WSW,242,0.0,0.0,89,0.00,,,0.04,WeatherCatV1.21B27,2013-08-12 22:24:00,
2013-08-12 18:29:00,70.9,67.5,29.91,WSW,242,0.0,0.0,89,0.00,,,0.04,WeatherCatV1.21B27,2013-08-12 22:29:00,
2013-08-12 18:34:00,71.5,67.8,29.90,WSW,242,0.0,0.0,88,0.00,,,0.04,WeatherCatV1.21B27,2013-08-12 22:34:00,
2013-08-12 18:39:00,72.0,67.9,29.90,WSW,242,0.0,0.0,87,0.00,,,0.04,WeatherCatV1.21B27,2013-08-12 22:39:00,
2013-08-12 18:44:00,72.2,67.4,29.90,WSW,242,0.0,0.0,85,0.00,,,0.04,WeatherCatV1.21B27,2013-08-12 22:44:00,
2013-08-12 18:49:00,71.9,66.8,29.89,South,188,0.0,0.0,84,0.00,,,0.04,WeatherCatV1.21B27,2013-08-12 22:49:00,
2013-08-12 18:54:00,71.7,66.6,29.89,South,187,0.0,0.0,84,0.00,,,0.04,WeatherCatV1.21B27,2013-08-12 22:54:00,
2013-08-12 18:59:00,71.8,66.7,29.89,South,187,0.0,0.0,84,0.00,,,0.04,WeatherCatV1.21B27,2013-08-12 22:59:00,
2013-08-12 19:04:00,71.9,67.1,29.89,South,188,0.0,0.0,85,0.00,,,0.04,WeatherCatV1.21B27,2013-08-12 23:04:00,
2013-08-12 19:09:00,72.0,66.9,29.88,South,188,0.0,0.0,84,0.00,,,0.04,WeatherCatV1.21B27,2013-08-12 23:09:00,
2013-08-12 19:14:00,72.0,66.5,29.88,South,188,0.0,0.0,83,0.00,,,0.04,WeatherCatV1.21B27,2013-08-12 23:14:00,
2013-08-12 19:19:00,71.6,66.2,29.88,South,188,0.0,0.0,83,0.00,,,0.04,WeatherCatV1.21B27,2013-08-12 23:19:00,
2013-08-12 19:24:00,71.2,65.8,29.88,SSW,199,0.0,0.0,83,0.00,,,0.04,WeatherCatV1.21B27,2013-08-12 23:24:00,
2013-08-12 19:29:00,70.6,65.5,29.87,SSW,199,0.0,0.0,84,0.00,,,0.04,WeatherCatV1.21B27,2013-08-12 23:29:00,
2013-08-12 19:34:00,70.3,65.6,29.88,SSW,199,0.0,0.0,85,0.00,,,0.04,WeatherCatV1.21B27,2013-08-12 23:34:00,
2013-08-12 19:39:00,70.0,65.3,29.87,SSW,199,0.0,0.0,85,0.00,,,0.04,WeatherCatV1.21B27,2013-08-12 23:39:00,
2013-08-12 19:44:00,69.9,65.5,29.87,SSW,199,0.0,0.0,86,0.00,,,0.04,WeatherCatV1.21B27,2013-08-12 23:44:00,
2013-08-12 19:49:00,69.9,65.5,29.88,SSW,199,0.0,0.0,86,0.00,,,0.04,WeatherCatV1.21B27,2013-08-12 23:49:00,
2013-08-12 19:54:00,69.9,65.5,29.87,SSW,199,0.0,0.0,86,0.00,,,0.04,WeatherCatV1.21B27,2013-08-12 23:54:00,
2013-08-12 19:59:00,69.9,65.5,29.87,SSW,199,0.0,0.0,86,0.00,,,0.04,WeatherCatV1.21B27,2013-08-12 23:59:00,
2013-08-12 20:04:00,69.9,65.5,29.87,SSW,199,0.0,0.0,86,0.00,,,0.04,WeatherCatV1.21B27,2013-08-13 00:04:00,
2013-08-12 20:09:00,69.8,65.4,29.87,North,351,0.0,0.0,86,0.00,,,0.04,WeatherCatV1.21B27,2013-08-13 00:09:00,
2013-08-12 20:14:00,69.6,65.2,29.87,North,350,0.0,0.0,86,0.00,,,0.04,WeatherCatV1.21B27,2013-08-13 00:14:00,
2013-08-12 20:19:00,69.4,65.0,29.87,North,351,0.0,0.0,86,0.00,,,0.04,WeatherCatV1.21B27,2013-08-13 00:19:00,
2013-08-12 20:24:00,69.3,65.3,29.87,North,351,0.0,0.0,87,0.00,,,0.04,WeatherCatV1.21B27,2013-08-13 00:24:00,
2013-08-12 20:29:00,69.1,65.1,29.87,North,351,0.0,0.0,87,0.00,,,0.04,WeatherCatV1.21B27,2013-08-13 00:29:00,
2013-08-12 20:34:00,69.0,65.0,29.87,North,350,0.0,0.0,87,0.00,,,0.04,WeatherCatV1.21B27,2013-08-13 00:34:00,
2013-08-12 20:39:00,68.9,64.9,29.86,North,351,0.0,0.0,87,0.00,,,0.04,WeatherCatV1.21B27,2013-08-13 00:39:00,
2013-08-12 20:44:00,68.7,64.7,29.86,North,351,0.0,0.0,87,0.00,,,0.04,WeatherCatV1.21B27,2013-08-13 00:44:00,
2013-08-12 20:49:00,68.6,64.6,29.86,North,350,0.0,0.0,87,0.00,,,0.04,WeatherCatV1.21B27,2013-08-13 00:49:00,
2013-08-12 20:54:00,68.4,64.4,29.86,North,350,0.0,0.0,87,0.00,,,0.04,WeatherCatV1.21B27,2013-08-13 00:54:00,
2013-08-12 20:59:00,68.2,64.2,29.86,North,351,0.0,0.0,87,0.00,,,0.04,WeatherCatV1.21B27,2013-08-13 00:59:00,
2013-08-12 21:04:00,68.1,64.4,29.86,North,351,0.0,0.0,88,0.00,,,0.04,WeatherCatV1.21B27,2013-08-13 01:04:00,
2013-08-12 21:09:00,68.0,64.3,29.86,North,350,0.0,0.0,88,0.00,,,0.04,WeatherCatV1.21B27,2013-08-13 01:09:00,
2013-08-12 21:14:00,67.9,64.2,29.86,North,351,0.0,0.0,88,0.00,,,0.04,WeatherCatV1.21B27,2013-08-13 01:14:00,
2013-08-12 21:19:00,67.8,64.1,29.86,North,351,0.0,0.0,88,0.00,,,0.04,WeatherCatV1.21B27,2013-08-13 01:19:00,
2013-08-12 21:24:00,67.7,64.0,29.86,North,351,0.0,0.0,88,0.00,,,0.04,WeatherCatV1.21B27,2013-08-13 01:24:00,
2013-08-12 21:29:00,67.7,64.0,29.86,North,350,0.0,0.0,88,0.00,,,0.04,WeatherCatV1.21B27,2013-08-13 01:29:00,
2013-08-12 21:34:00,67.7,64.0,29.85,North,350,0.0,0.0,88,0.00,,,0.04,WeatherCatV1.21B27,2013-08-13 01:34:00,
2013-08-12 21:39:00,67.6,64.2,29.85,North,351,0.0,0.0,89,0.00,,,0.04,WeatherCatV1.21B27,2013-08-13 01:39:00,
2013-08-12 21:44:00,67.6,64.2,29.85,North,350,0.0,0.0,89,0.00,,,0.04,WeatherCatV1.21B27,2013-08-13 01:44:00,
2013-08-12 21:49:00,67.6,64.2,29.85,North,350,0.0,0.0,89,0.00,,,0.04,WeatherCatV1.21B27,2013-08-13 01:49:00,
2013-08-12 21:54:00,67.6,64.2,29.85,North,351,0.0,0.0,89,0.00,,,0.04,WeatherCatV1.21B27,2013-08-13 01:54:00,
2013-08-12 21:59:00,67.6,64.2,29.84,North,351,0.0,0.0,89,0.00,,,0.04,WeatherCatV1.21B27,2013-08-13 01:59:00,
2013-08-12 22:04:00,67.6,64.2,29.84,North,351,0.0,0.0,89,0.00,,,0.04,WeatherCatV1.21B27,2013-08-13 02:04:00,
2013-08-12 22:09:00,67.5,64.1,29.84,North,351,0.0,0.0,89,0.00,,,0.04,WeatherCatV1.21B27,2013-08-13 02:09:00,
2013-08-12 22:14:00,67.5,64.1,29.83,North,351,0.0,0.0,89,0.00,,,0.04,WeatherCatV1.21B27,2013-08-13 02:14:00,
2013-08-12 22:19:00,67.6,64.2,29.83,North,351,0.0,0.0,89,0.00,,,0.04,WeatherCatV1.21B27,2013-08-13 02:19:00,
2013-08-12 22:24:00,67.6,64.6,29.83,North,350,0.0,0.0,90,0.00,,,0.04,WeatherCatV1.21B27,2013-08-13 02:24:00,
2013-08-12 22:29:00,67.7,64.7,29.82,North,350,0.0,0.0,90,0.00,,,0.04,WeatherCatV1.21B27,2013-08-13 02:29:00,
2013-08-12 22:34:00,67.8,64.8,29.83,North,351,0.0,0.0,90,0.00,,,0.04,WeatherCatV1.21B27,2013-08-13 02:34:00,
2013-08-12 22:39:00,68.3,65.2,29.82,WNW,296,0.0,0.0,90,0.00,,,0.04,WeatherCatV1.21B27,2013-08-13 02:39:00,
2013-08-12 22:44:00,68.6,65.5,29.82,WNW,295,0.0,0.0,90,0.00,,,0.04,WeatherCatV1.21B27,2013-08-13 02:44:00,
2013-08-12 22:49:00,68.8,65.7,29.81,WNW,295,0.0,0.0,90,0.00,,,0.04,WeatherCatV1.21B27,2013-08-13 02:49:00,
2013-08-12 22:54:00,68.9,65.8,29.81,WNW,296,0.0,0.0,90,0.00,,,0.04,WeatherCatV1.21B27,2013-08-13 02:54:00,
2013-08-12 22:59:00,68.9,65.8,29.81,WNW,295,0.0,0.0,90,0.00,,,0.04,WeatherCatV1.21B27,2013-08-13 02:59:00,
2013-08-12 23:04:00,69.0,65.9,29.81,WNW,296,0.0,0.0,90,0.00,,,0.04,WeatherCatV1.21B27,2013-08-13 03:04:00,
2013-08-12 23:09:00,69.1,66.0,29.81,SE,133,0.0,0.0,90,0.00,,,0.04,WeatherCatV1.21B27,2013-08-13 03:09:00,
2013-08-12 23:14:00,69.3,66.2,29.81,SE,133,0.0,0.0,90,0.00,,,0.04,WeatherCatV1.21B27,2013-08-13 03:14:00,
2013-08-12 23:19:00,69.4,66.3,29.80,SE,133,0.0,0.0,90,0.00,,,0.04,WeatherCatV1.21B27,2013-08-13 03:19:00,
2013-08-12 23:24:00,69.5,66.4,29.81,SE,133,0.0,0.0,90,0.00,,,0.04,WeatherCatV1.21B27,2013-08-13 03:24:00,
2013-08-12 23:29:00,69.5,66.4,29.80,SE,133,0.0,0.0,90,0.00,,,0.04,WeatherCatV1.21B27,2013-08-13 03:29:00,
2013-08-12 23:34:00,69.6,66.5,29.80,NW,309,0.0,0.0,90,0.00,,,0.04,WeatherCatV1.21B27,2013-08-13 03:34:00,
2013-08-12 23:39:00,69.6,66.5,29.80,NW,309,0.0,0.0,90,0.00,,,0.04,WeatherCatV1.21B27,2013-08-13 03:39:00,
2013-08-12 23:44:00,69.7,66.6,29.80,NW,309,0.0,0.0,90,0.00,,,0.04,WeatherCatV1.21B27,2013-08-13 03:44:00,
2013-08-12 23:52:00,69.8,66.7,29.79,NW,309,0.0,0.0,90,0.00,,,0.04,WeatherCatV1.21B27,2013-08-13 03:52:00,
2013-08-12 23:58:00,69.9,66.5,29.80,NW,309,0.0,0.0,89,0.00,,,0.04,WeatherCatV1.21B27,2013-08-13 03:58:00,